Vertical_Velocity
-2 -3 -1 -1 -1 -0 3 0 -0 -1 4 -0 -2 -3 1 1 -3 4 -3 0 -2 -5 -1 3 -0 0 2 -0 -8 -1 0 -0 1 -1 1 -1 3 1 -1 -2 4 5 -1 0 0 -3 1
1 0 0 1 -1 -1 2 -1 -2 3 4 2 2 -2 -1 2 -4 6 -6 3 -3 -2 -1 4 1 1 -1 4 -3 0 3 4 3 2 -2 1 3 -2 3 -0 4 -1 0 1 0 1 -1
-2 -2 2 2 2 -2 -2 -0 0 -2 -1 3 0 -3 1 1 -1 3 -6 3 -1 -3 0 1 -2 0 0 -12 2 2 1 1 4 4 5 3 5 3 -0 1 -2 -1 1 3 3 0 1
2 -0 0 -1 2 0 1 -1 -1 -3 3 6 -2 -2 1 -2 1 -0 -6 3 -3 -4 1 2 2 1 -9 1 -0 2 2 3 3 4 4 2 2 1 2 -3 2 3 4 1 6 1 1
5 -2 0 1 -1 -2 -0 1 1 -5 -2 6 -2 -3 4 -0 2 1 -7 6 -4 -2 3 1 0 1 -5 1 1 2 2 5 -0 5 3 1 -3 1 2 3 4 3 -0 1 6 0 -0
-3 8 2 -5 -1 3 1 -3 3 -5 -2 3 4 -2 4 -3 2 0 -6 4 -3 -0 2 0 -0 4 -3 10 3 1 4 0 3 1 4 3 -0 3 3 5 -5 -1 1 3 -2 4 2
-3 -5 4 -3 3 0 2 -1 2 -1 1 1 -3 0 0 3 -0 1 -0 -3 -4 -1 2 -4 4 -0 1 5 -2 2 2 0 6 -1 3 -1 4 -1 -2 -2 1 -1 -0 -2 3 2 -2
-3 1 0 -5 -0 3 1 -1 1 1 1 2 -1 3 -5 8 -3 -1 2 -5 3 -0 4 -2 -2 -5 -1 1 1 4 -5 7 -3 1 0 8 2 2 -0 0 -1 1 -1 3 3 1 4
1 -2 -0 -1 -2 4 -1 2 0 5 2 1 -6 4 -2 5 -3 -2 -2 -3 4 1 5 1 -2 0 1 -1 1 7 -2 -1 -1 3 0 3 3 -0 -1 2 0 1 -1 0 -5 2 1
-0 -2 -2 6 -2 4 -1 -1 4 -2 3 5 -0 1 -0 4 2 -0 -9 10 -1 3 6 6 3 1 -1 0 4 0 -1 1 4 -1 0 -0 2 -1 1 -1 2 -0 0 -1 -0 4 2
-3 1 -5 2 4 -2 5 -2 -1 2 2 2 3 2 2 2 0 0 -1 3 1 5 7 5 5 3 -1 3 3 4 -1 -1 -1 0 7 7 0 0 -0 2 1 4 -1 -2 -1 0 4
0 1 1 -4 -3 2 3 2 -2 6 -1 2 -1 5 8 -6 2 3 3 2 3 15 -1 5 1 1 4 0 1 1 2 -3 -2 -1 1 0 -1 0 2 1 -0 -0 1 1 1 1 5
3 -3 1 -1 -1 1 1 3 4 1 5 2 -4 2 4 -0 3 1 5 2 12 3 5 4 -1 1 -1 1 3 1 1 3 -0 3 3 4 2 2 -1 -2 3 4 6 2 4 5 -4
0 6 -0 2 -4 1 1 -2 2 4 5 4 -2 1 5 -2 2 0 4 12 7 -2 -2 1 -0 3 -1 -1 2 1 2 2 2 2 0 -2 13 2 2 2 -3 -2 3 0 -1 -0 -1
-2 -0 -2 0 0 5 -0 2 1 5 7 4 3 2 -7 2 4 -1 7 7 -9 -2 -4 -1 8 4 3 3 2 2 -0 -1 -1 1 2 -0 4 3 -1 0 5 5 4 4 0 1 4
-1 -3 -2 -0 1 2 -2 5 4 6 3 -0 -1 3 -5 11 3 4 9 -5 1 -1 0 5 -2 0 -1 0 5 4 1 1 1 0 1 1 2 0 3 3 3 6 1 8 2 1 0
-0 -5 -2 -14 4 6 -3 14 8 3 1 10 3 1 1 5 4 13 -1 -5 0 -2 -1 0 -2 -0 -3 -3 -1 -1 -3 5 1 2 -0 -1 3 7 4 2 -2 4 3 1 3 2 2
0 3 -4 -9 5 1 -11 21 6 1 11 11 -1 9 2 2 10 -1 -0 -4 -2 0 0 1 2 -1 -4 -0 -0 1 -3 0 -1 -1 0 1 -1 -0 -4 2 1 1 -1 -1 3 2 1
1 -4 -3 4 -2 4 -2 21 5 4 -1 -18 -4 4 9 1 0 2 3 1 -1 2 -1 2 0 -1 0 -1 2 -1 0 1 -0 0 -1 -1 1 2 9 9 5 2 -0 -1 -0 0 -3
0 -2 -5 -2 11 7 2 14 4 -1 -2 -1 2 4 8 3 4 -5 -0 -1 2 0 1 -0 -1 -1 0 1 0 -0 2 2 -0 0 -1 1 0 1 -3 2 -1 2 2 0 -1 1 -2
-1 1 4 10 3 -18 30 6 9 -2 7 5 -0 -1 -13 0 7 1 3 -2 1 1 1 0 4 -1 -4 -0 1 0 1 3 2 -1 1 3 1 1 -0 -0 1 -0 -1 -0 3 -6 1
-1 4 -3 -6 -2 -17 12 3 25 -5 14 7 -5 -3 2 0 3 4 0 -1 -3 3 -2 2 1 0 -0 -1 -5 -3 -3 -0 -4 6 0 1 2 0 -0 0 0 0 -1 0 -0 -2 1
7 -2 4 8 -32 17 17 7 12 0 3 -4 0 2 -6 -0 2 5 -6 -3 -5 -2 1 1 -4 -3 1 3 1 3 -1 -0 -2 -3 -0 -0 -1 0 -0 0 0 -1 -8 -2 -1 0 -0
6 -6 23 -4 -9 12 0 7 5 -3 4 10 -7 -3 -2 2 1 -7 -0 -2 -1 -2 -6 1 0 -3 4 -2 -3 -5 -5 -2 -2 2 -1 -1 -1 -0 -0 1 0 0 0 1 1 -3 -0
-3 9 -1 25 9 -0 1 6 -2 -3 3 1 3 -2 -4 0 -5 5 4 -2 2 1 -1 -2 1 2 -1 0 -1 0 0 -1 1 1 -0 -0 -1 -1 -0 -0 -2 -5 1 1 -0 -7 1
2 5 14 2 -5 0 5 -2 -2 2 4 4 3 2 -3 -13 -6 -4 -3 -4 -3 0 3 2 1 3 -1 -1 -1 -1 -1 -2 3 4 0 -1 -1 2 1 1 -1 4 2 -2 1 -1 0
-10 -12 -6 -2 -0 5 0 -1 3 2 7 5 3 -2 2 -5 -0 -4 -5 -11 -0 0 -2 0 1 -1 -1 -0 -1 -1 1 1 1 -1 -0 -0 -0 -1 0 -1 -6 -0 -1 -1 7 8 0
4 -2 -2 6 3 -1 0 -0 1 0 5 8 -1 -1 -2 -3 2 1 1 -4 -3 1 -4 6 2 2 1 0 -1 -1 -0 -0 1 -1 -2 -3 -3 -1 0 1 -2 -2 4 5 7 -1 1
-5 -3 6 -7 -7 0 0 -3 1 1 2 16 -1 -1 0 -7 1 -2 -1 -0 -4 4 -6 4 2 -3 -3 -2 1 -1 0 1 0 0 2 2 -2 1 -1 -2 1 -3 0 1 -1 -1 -2
Height
1521 1523 1524 1524 1524 1525 1525 1525 1525 1526 1526 1526 1526 1528 1526 1523 1521 1519 1518 1517 1516 1516 1515 1514 1513 1513 1513 1512 1508 1506 1505 1505 1506 1508 1511 1513 1515 1515 1512 1512 1514 1513 1509 1511 1513 1515 1516
1514 1516 1519 1520 1520 1521 1522 1521 1522 1522 1523 1523 1522 1524 1523 1521 1518 1517 1516 1515 1513 1513 1513 1513 1512 1513 1512 1512 1506 1506 1506 1506 1506 1508 1511 1513 1514 1515 1511 1510 1511 1509 1509 1511 1513 1513 1517
1508 1510 1512 1514 1515 1516 1517 1517 1518 1520 1520 1520 1520 1521 1520 1518 1515 1514 1513 1513 1512 1513 1512 1513 1512 1512 1511 1508 1505 1505 1504 1505 1506 1507 1510 1513 1514 1515 1512 1508 1511 1509 1509 1508 1513 1515 1517
1499 1503 1506 1508 1510 1511 1512 1514 1514 1516 1516 1517 1517 1518 1516 1515 1513 1511 1512 1511 1511 1512 1512 1513 1511 1511 1507 1504 1503 1503 1504 1504 1504 1506 1510 1510 1511 1514 1512 1511 1509 1507 1505 1507 1513 1512 1517
1491 1495 1498 1502 1504 1505 1507 1509 1511 1512 1514 1514 1514 1514 1514 1512 1511 1508 1511 1509 1510 1511 1512 1512 1512 1511 1506 1503 1503 1503 1504 1504 1503 1504 1507 1509 1511 1511 1510 1507 1507 1507 1506 1507 1513 1514 1514
1481 1486 1489 1494 1498 1500 1502 1504 1505 1507 1509 1511 1511 1511 1511 1509 1509 1508 1510 1509 1510 1511 1512 1511 1511 1514 1503 1502 1502 1503 1504 1503 1503 1504 1508 1510 1511 1506 1504 1502 1510 1504 1506 1505 1509 1517 1513
1470 1477 1482 1486 1491 1495 1497 1499 1501 1502 1505 1507 1508 1509 1509 1506 1508 1507 1509 1511 1514 1514 1509 1505 1506 1504 1500 1500 1501 1503 1503 1504 1503 1505 1501 1507 1505 1503 1499 1500 1500 1498 1501 1506 1514 1521 1519
1461 1466 1473 1478 1483 1487 1491 1494 1495 1496 1502 1503 1505 1505 1506 1505 1506 1506 1508 1508 1508 1508 1505 1501 1503 1502 1500 1500 1501 1502 1503 1503 1503 1500 1503 1504 1502 1503 1502 1503 1501 1501 1504 1511 1520 1522 1518
1453 1457 1462 1468 1475 1479 1484 1488 1490 1493 1496 1499 1501 1503 1502 1502 1505 1505 1505 1506 1506 1506 1504 1501 1500 1500 1499 1500 1498 1499 1502 1502 1501 1501 1501 1497 1505 1505 1504 1502 1502 1505 1504 1513 1510 1520 1519
1442 1449 1453 1460 1465 1471 1475 1482 1485 1488 1492 1496 1496 1498 1500 1500 1508 1504 1504 1506 1505 1505 1499 1498 1497 1497 1498 1499 1498 1498 1499 1502 1503 1502 1501 1503 1506 1504 1501 1504 1502 1507 1510 1509 1513 1512 1513
1433 1438 1444 1450 1456 1464 1467 1475 1479 1482 1488 1491 1493 1494 1497 1499 1501 1502 1504 1503 1504 1505 1512 1495 1495 1495 1496 1498 1498 1498 1498 1500 1497 1501 1507 1505 1504 1504 1504 1508 1508 1510 1512 1508 1509 1509 1511
1424 1427 1434 1439 1447 1454 1462 1466 1473 1477 1481 1487 1489 1491 1493 1496 1497 1500 1502 1502 1504 1503 1508 1493 1491 1493 1495 1497 1498 1497 1498 1499 1503 1503 1503 1506 1508 1506 1507 1511 1509 1512 1512 1512 1511 1512 1520
1414 1419 1424 1429 1437 1444 1453 1460 1466 1471 1477 1481 1485 1489 1488 1494 1496 1497 1500 1502 1500 1500 1493 1492 1490 1490 1491 1495 1497 1496 1495 1497 1498 1506 1506 1505 1508 1509 1510 1510 1513 1511 1509 1518 1527 1525 1522
1403 1409 1414 1420 1428 1434 1443 1452 1460 1465 1472 1476 1480 1485 1485 1490 1492 1495 1498 1499 1498 1485 1488 1487 1487 1489 1492 1493 1497 1497 1496 1498 1501 1497 1499 1502 1516 1508 1511 1508 1505 1508 1508 1518 1532 1526 1517
1391 1400 1405 1411 1418 1425 1433 1443 1453 1460 1466 1470 1476 1479 1481 1485 1490 1494 1497 1493 1485 1482 1481 1484 1487 1490 1493 1493 1493 1495 1496 1495 1500 1499 1496 1503 1510 1510 1512 1510 1511 1514 1514 1515 1523 1541 1531
1382 1390 1396 1402 1409 1416 1423 1434 1444 1453 1459 1466 1471 1475 1479 1482 1487 1494 1493 1483 1480 1481 1483 1481 1485 1485 1490 1490 1493 1493 1495 1500 1499 1500 1500 1501 1511 1510 1512 1512 1513 1509 1513 1519 1518 1533 1527
1372 1380 1386 1394 1400 1407 1415 1425 1436 1446 1453 1463 1469 1475 1473 1478 1486 1491 1482 1477 1478 1480 1482 1481 1481 1486 1484 1490 1488 1491 1493 1500 1500 1500 1500 1498 1500 1512 1511 1508 1505 1514 1513 1517 1514 1520 1520
1362 1370 1377 1385 1391 1398 1406 1416 1428 1439 1447 1457 1463 1465 1466 1473 1482 1478 1474 1474 1476 1477 1480 1480 1479 1480 1483 1486 1489 1489 1492 1493 1499 1499 1498 1502 1501 1510 1506 1510 1511 1508 1506 1508 1515 1521 1525
1354 1361 1368 1375 1381 1388 1396 1406 1419 1429 1436 1446 1453 1459 1465 1469 1468 1472 1473 1472 1474 1475 1475 1477 1477 1479 1483 1485 1491 1490 1492 1500 1500 1499 1499 1501 1502 1511 1512 1512 1511 1508 1507 1508 1514 1517 1519
1347 1353 1360 1367 1373 1381 1388 1401 1412 1422 1433 1446 1451 1453 1463 1467 1465 1463 1467 1467 1471 1474 1474 1476 1477 1479 1482 1486 1488 1492 1494 1500 1501 1501 1502 1502 1500 1498 1501 1497 1498 1506 1507 1507 1506 1516 1507
1340 1346 1353 1357 1364 1372 1384 1396 1406 1417 1428 1437 1439 1438 1444 1452 1460 1459 1462 1463 1466 1471 1473 1474 1475 1474 1477 1486 1488 1490 1492 1498 1501 1502 1503 1501 1499 1502 1503 1505 1505 1502 1501 1504 1503 1500 1508
1333 1339 1347 1351 1358 1367 1379 1392 1399 1413 1424 1431 1432 1435 1443 1447 1455 1457 1460 1461 1462 1468 1468 1469 1469 1475 1477 1479 1478 1484 1486 1491 1490 1501 1500 1503 1502 1506 1507 1509 1509 1507 1501 1498 1498 1496 1497
1326 1331 1341 1345 1350 1361 1374 1385 1394 1406 1416 1423 1427 1430 1437 1450 1450 1453 1455 1458 1460 1465 1472 1471 1469 1474 1478 1482 1484 1484 1489 1490 1491 1494 1498 1501 1504 1507 1507 1515 1513 1517 1497 1493 1492 1491 1492
1323 1323 1325 1336 1345 1354 1368 1379 1390 1402 1412 1423 1425 1429 1434 1445 1448 1450 1455 1458 1460 1462 1466 1472 1473 1473 1484 1485 1487 1490 1493 1495 1497 1500 1500 1503 1505 1514 1512 1523 1518 1485 1491 1491 1488 1486 1484
1317 1325 1329 1334 1345 1355 1367 1378 1390 1401 1412 1418 1423 1427 1430 1446 1446 1452 1453 1456 1463 1466 1469 1471 1475 1478 1482 1485 1487 1493 1497 1501 1502 1504 1503 1503 1505 1518 1516 1507 1493 1482 1489 1492 1492 1484 1481
1313 1320 1328 1336 1349 1359 1369 1379 1389 1400 1410 1417 1422 1426 1430 1436 1444 1447 1452 1456 1459 1463 1469 1476 1478 1480 1483 1486 1488 1493 1493 1488 1497 1502 1507 1507 1506 1504 1519 1510 1507 1485 1492 1493 1492 1489 1485
1315 1323 1331 1341 1352 1362 1371 1379 1388 1399 1409 1416 1421 1425 1430 1434 1439 1444 1447 1452 1457 1460 1464 1474 1480 1483 1483 1486 1490 1490 1488 1493 1492 1500 1511 1510 1513 1510 1511 1509 1495 1486 1492 1493 1494 1491 1486
1318 1326 1335 1344 1353 1362 1370 1378 1387 1397 1407 1414 1419 1424 1428 1432 1439 1441 1444 1447 1452 1456 1459 1472 1477 1481 1483 1486 1487 1488 1492 1491 1491 1490 1495 1496 1503 1508 1514 1511 1504 1489 1492 1492 1487 1486 1487
1324 1332 1339 1347 1356 1362 1369 1377 1386 1396 1406 1414 1418 1423 1427 1432 1439 1440 1443 1444 1447 1452 1455 1464 1463 1466 1471 1476 1485 1490 1496 1503 1491 1487 1495 1495 1489 1489 1492 1485 1486 1488 1487 1487 1487 1486 1486